Home   Weather   Ahaus   Past weeks

Flag for Germany Past Weather in Ahaus, North Rhine-Westphalia, Germany — Yesterday and Last 2 Weeks

Now
72 °F

Passing clouds.


Feels Like: 77 °F
Forecast: 51 / 75 °F
Wind: 1 mph from Northeast

Location: Twenthe

Current Time: Aug 30, 2016 at 5:08:47 PM

Latest Report: Aug 30, 2016 at 3:00 PM


Visibility: 25 mi

Pressure: 30.30 "Hg

Humidity: 50%

Dew Point: 52 °F

Location of AhausLocation

Past Weather in Ahaus — Graph

°F

Ahaus Temperature Yesterday

Maximum temperature yesterday: 69 °F (at 4:00 PM)
Minimum temperature yesterday: 52 °F (at 11:00 PM)
Average temperature yesterday: 63 °F

High & Low Weather Summary for the Past Weeks

 TemperatureHumidityPressure
High90 °F (Aug 25, 4:00 PM)100% (Aug 16, 5:00 AM)30.33 "Hg (Aug 16, 5:00 AM)
Low45 °F (Aug 30, 7:00 AM)32% (Aug 25, 5:00 PM)29.78 "Hg (Aug 19, 6:00 PM)
Average67 °F75%30.04 "Hg
* Reported Aug 15 3:00 PM — Aug 30 3:00 PM, Ahaus, Weather by CustomWeather, © 2016

Note: Actual official high and low records may vary slightly from our data, if they occured in-between our weather recording intervals... More about our weather records

Advertising

Ahaus Weather History for the Previous 24 Hours

Scroll right to see more
 ConditionsComfort  
Time TempWeatherWind HumidityBarometerVisibility
3:00 PM
Tue, Aug 30
72 °FPassing clouds.1 mph50%30.30 "Hg25 mi
2:00 PM72 °FPartly sunny.N/A49%30.31 "Hg19 mi
1:00 PM69 °FPartly sunny.1 mph58%30.32 "Hg17 mi
12:00 PM67 °FPassing clouds.1 mph62%30.33 "Hg22 mi
11:00 AM65 °FSunny.2 mph69%30.33 "Hg19 mi
10:00 AM63 °FPassing clouds.2 mph75%30.32 "Hg18 mi
9:00 AM57 °FSunny.1 mph94%30.31 "Hg8 mi
8:00 AM49 °FSunny.No wind100%30.30 "Hg1 mi
7:00 AM45 °FSunny.1 mph99%30.29 "Hg0 mi
6:00 AM45 °FClear.No wind100%30.29 "Hg0 mi
5:00 AM46 °FPassing clouds.No wind100%30.29 "Hg0 mi
4:00 AM47 °FClear.No wind100%30.28 "Hg0 mi
3:00 AM47 °FPassing clouds.No wind100%30.27 "Hg0 mi
2:00 AM49 °FOvercast.1 mph100%30.27 "Hg1 mi
1:00 AM50 °FPassing clouds.1 mph100%30.27 "Hg1 mi
12:00 AM51 °FOvercast.No wind100%30.26 "Hg12 mi
11:00 PM
Mon, Aug 29
52 °FPassing clouds.No wind96%30.24 "Hg9 mi
10:00 PM55 °FFog.No wind95%30.23 "Hg5 mi
9:00 PM60 °FClear.2 mph78%30.20 "Hg28 mi
8:00 PM64 °FPassing clouds.2 mph73%30.17 "Hg28 mi
7:00 PM66 °FScattered clouds.3 mph67%30.16 "Hg28 mi
6:00 PM67 °FScattered clouds.3 mph69%30.15 "Hg28 mi
5:00 PM69 °FPassing clouds.6 mph61%30.14 "Hg25 mi
Weather by CustomWeather, © 2016

See weather overviewHow to use our weather pages